カタログに戻る

ONEWEB-0174

運用中通信PO
NORAD 48072·PAYLOAD·🇬🇧 United Kingdom

打ち上げ Mar 25, 2021 から Vostochny Cosmodrome

Loading…

次のパス (今後24時間)

TLE

最新Source: CelesTrak SupGP

元期: Sep 14, 2026, 21:02 UTC

1 48072C 21025AG  26257.87653194  .00000072  00000+0  19624-3 0  2576
2 48072  87.8934 302.3810 0001858 100.4406 295.7482 13.13471384    19

AllMySatでONEWEB-0174をリアルタイム追跡

Download on the App Store